CAPE
0 0 14 1 0 0 0 0 26 0 8 308 315 307 283 523 792 988 965 1141 1122 688 658 709 722 641 1378 1161 990 896 1242 1147 750 514 425 227 375 244 146 222 256 260 292 346 357 400 688 978 1258 1662 1736 1896 2037 1970 2235 2206 2110 2263 2209 2424 2300 2343 2424 2458 2362 2113 1873 1738 1847 1692 1524 1589 1539 1426 1547 1471 1381 1402 1415 1496 1700 2105 2169 2611 2990 3497
0 1 1 0 0 0 0 0 0 0 40 346 356 309 509 436 588 774 1042 871 1172 989 702 879 1113 1254 1272 992 749 585 945 1008 836 629 525 335 199 124 154 305 238 294 232 368 484 730 875 1044 1361 1656 1706 2079 2195 2135 2249 2134 2145 2248 2105 2468 2408 2154 2221 2372 2243 2132 1840 1816 1810 1714 1518 1341 1396 1522 1486 1489 1311 1518 1572 1980 2083 2030 2106 2890 3666 3289
0 0 0 0 2 0 0 0 0 0 0 239 500 371 475 468 835 1158 1345 1212 1405 1238 627 936 917 786 1070 860 643 638 857 1004 1037 834 648 489 323 182 130 269 245 186 333 479 568 678 818 944 1192 1686 1813 2010 2360 2285 2118 2146 2124 2353 2359 2681 2867 2238 2129 2360 2480 2424 2083 2086 1789 1859 1696 1656 1502 1490 1594 1492 1444 1417 1406 1809 1942 1992 2384 2945 3433 3558
0 0 0 0 0 0 0 0 0 0 0 1 43 215 401 650 530 653 1447 1384 1379 931 730 863 1120 820 1037 883 576 643 823 1227 1181 1112 830 709 343 273 165 237 246 131 310 356 463 433 514 843 1260 1624 1812 1967 2102 2300 2159 2055 2115 2150 2520 2792 3035 2785 2318 2325 2441 2240 2458 2256 2100 2117 2039 2142 1866 1903 2269 2381 1872 1631 1643 1671 1998 2411 2636 2931 3201 3325
0 0 0 0 0 0 0 0 0 0 0 0 0 2 120 668 577 270 728 1097 1040 790 972 925 604 738 622 872 751 464 509 697 721 944 946 787 683 383 150 139 196 187 312 365 370 294 396 747 1216 1543 1668 1691 1955 2018 2109 2072 1952 1735 2382 2925 2984 3014 2679 2324 2328 2560 2589 2366 2087 1948 2049 2316 2523 2430 2218 2107 1884 2083 1911 1759 1962 2206 2532 2810 3201 3114
0 0 0 0 0 0 0 0 0 0 0 0 0 0 29 271 710 577 701 843 867 783 563 406 300 603 514 503 574 800 750 572 519 750 1111 828 739 453 119 109 164 243 297 284 278 291 370 748 1039 1593 1639 1442 1501 1816 2073 1772 1830 1851 2190 2789 3117 3030 2992 2771 2644 2952 2795 2362 1774 1977 1662 1768 2154 2050 2020 1779 1758 1732 1870 1422 1559 2120 2382 2448 2861 2745
0 0 0 0 0 0 0 0 0 0 0 0 0 0 0 5 742 583 446 539 624 488 731 832 726 59 698 730 478 608 700 594 611 434 627 784 754 530 254 129 141 126 198 258 225 239 238 613 908 1233 1523 1399 1429 1626 1960 1913 1921 2046 2347 2923 3018 3165 3098 2918 2948 3212 2954 2811 2421 2218 1956 1702 1684 1622 1598 1930 1472 1341 1381 1565 1500 1892 2006 2321 2414 2776
0 0 0 0 0 0 0 0 0 0 0 0 1 0 0 3 38 0 2 9 318 776 617 878 692 513 260 113 856 1141 719 494 535 581 975 736 778 451 410 198 181 96 114 187 224 232 242 616 806 1022 1214 1230 1285 1324 1680 1727 1898 2249 2547 2779 2945 2924 2808 2873 3158 3119 2634 3029 3053 2942 2242 1781 1814 1405 1928 2139 2164 1853 1619 1859 1667 1803 1947 2455 2612 2722
0 0 0 0 0 0 0 0 0 0 0 3 0 0 9 0 1 0 0 0 198 248 363 360 442 251 329 898 1218 588 363 387 434 454 715 765 815 491 396 229 200 90 100 122 174 272 251 542 703 917 1007 1017 1257 1202 1495 1627 1903 2363 2706 2641 2677 2934 2766 2863 3116 3001 2853 3166 2954 2566 2280 2062 1770 1816 1890 1659 1753 2009 1813 1843 1753 1887 2046 2387 2696 2676
0 0 0 0 0 0 0 0 0 0 0 0 0 0 5 4 0 0 1 0 190 14 262 392 603 308 478 758 798 1303 996 397 348 541 375 359 823 643 393 277 241 161 150 95 117 136 240 396 456 593 824 1020 1083 1204 1402 1489 1730 2328 2661 2503 2662 2825 2781 2855 3222 3036 3004 3013 2832 2694 2420 2359 2161 2049 2206 2131 1913 2062 2002 2039 2062 2106 2023 2013 2277 2562
0 0 0 0 0 0 0 0 0 0 0 0 0 3 9 1 103 47 1 91 114 2 103 509 518 58 300 654 705 617 724 1101 981 633 760 614 673 783 650 266 261 185 124 122 107 74 156 249 342 398 694 844 1090 1421 1395 1330 1648 2031 2418 2460 2608 2626 2540 2706 3103 3002 3115 2920 2743 2717 2602 2415 2836 2249 2401 2306 2180 2179 2228 2190 2138 2176 2232 2046 2018 2195
0 0 0 0 0 0 0 0 0 0 0 0 0 8 9 315 65 89 41 203 96 75 171 553 370 86 108 464 1028 926 826 862 929 1277 1232 988 558 790 905 488 275 236 164 130 111 57 54 194 308 436 616 983 1165 1432 1507 1153 1728 1749 2107 2365 2497 2490 2520 2704 2741 2807 2858 2713 2754 2898 2817 2903 3125 2855 2188 2322 2318 2407 2464 2717 2706 2729 2616 2418 2324 2239
0 0 0 0 0 0 0 0 0 0 0 0 0 0 4 78 392 22 409 19 26 87 37 473 500 313 180 743 823 1138 763 448 880 1143 1454 1373 715 631 990 854 409 304 186 225 137 55 63 160 317 513 755 1054 1676 1828 1606 1074 1351 1692 2032 2340 2340 2472 2510 2618 2570 2675 2829 2768 2744 2705 2848 3073 3401 3271 2993 2610 2856 2745 2588 2844 3002 2859 3156 3106 2903 2382
0 0 0 0 0 0 0 0 0 0 0 0 0 0 0 143 13 1 0 31 66 293 262 635 493 575 260 410 127 744 650 484 820 920 1314 1287 1095 637 1093 1333 758 578 296 204 156 158 80 120 376 621 994 1594 2089 2023 1830 1268 1325 1802 1942 2316 2281 2467 2569 2508 2582 2602 2666 2854 2885 2748 2899 3091 3307 3436 3162 3029 2856 2726 2927 2823 3127 2944 2830 3391 2873 2618
0 0 0 0 0 0 0 0 0 0 0 0 0 0 0 2 0 0 24 66 24 132 396 753 234 295 631 984 453 448 507 371 430 721 1036 1287 1179 809 885 1384 1256 1171 943 435 216 172 114 154 421 773 1098 1736 2043 1774 1551 1418 1690 2217 2193 2556 2464 2413 2543 2530 2551 2629 2745 2767 2760 2832 2900 3183 3240 3036 2988 3057 2842 2905 2819 2581 2685 2880 2728 2673 2607 2859
0 0 0 0 0 0 0 0 0 0 0 0 0 0 0 2 0 12 115 93 89 242 749 514 577 919 562 600 723 954 834 649 760 668 809 1346 1367 969 939 1140 1210 1448 1368 887 452 240 195 216 482 622 1133 1639 1855 1884 1510 1511 2180 2466 2483 2830 2621 2332 2451 2418 2535 2635 2713 2692 2633 2774 2934 2955 3161 3075 2907 3178 3254 3344 3149 2934 2773 2727 2845 2732 2904 2825
0 0 0 0 0 0 0 0 0 0 2 0 0 0 8 0 0 4 3 12 296 288 406 600 568 574 602 610 490 403 645 522 737 728 870 1121 1406 1363 1185 1005 1107 1327 1640 1319 732 487 414 443 513 589 893 1345 1523 1640 1502 1932 2400 2592 2673 2850 2804 2500 2357 2311 2409 2549 2504 2645 2550 2688 2707 2962 3116 2994 2912 2630 2669 2470 2755 3105 2941 2855 2706 2886 3207 3192
0 0 0 0 0 0 0 0 0 0 0 0 0 0 0 0 2 20 2 76 67 81 408 370 411 808 284 544 792 868 788 969 598 760 773 857 1272 1213 1204 1137 1142 1120 1314 1348 814 683 630 542 658 712 950 1126 1382 1561 1731 2312 2480 2762 2709 2447 2616 2441 2549 2087 2166 2242 2157 2170 2266 2624 2631 2832 2822 2566 2396 2441 2432 2526 2777 3075 3160 3025 3080 3048 2923 2918
0 0 0 0 0 0 0 0 0 0 0 0 2 13 0 28 1 5 9 91 118 108 242 672 315 457 616 568 762 839 948 906 985 765 880 955 1134 1232 1163 1310 1443 1561 1717 1356 794 671 658 726 857 1105 907 1005 1297 1660 1824 2323 2421 2505 2538 1992 1770 2044 2060 1874 1570 1843 2063 2115 2045 2148 2272 2382 2532 2500 2428 2353 2528 2619 2680 2688 2841 3070 3069 2884 3120 2987
0 0 0 0 0 0 0 0 0 0 0 0 0 0 0 0 9 46 0 1 70 138 56 683 619 365 526 582 992 798 966 890 1044 1057 783 1103 1152 1135 1080 1607 1815 1687 1774 1571 1170 757 652 684 859 1156 1232 1048 1161 1554 1700 2248 2194 2050 1991 1942 1616 1561 1787 1667 1213 1524 1958 1962 1828 1423 1758 2160 2359 2519 2558 2564 2738 2514 2598 2739 2735 2881 2757 2959 3017 2966
0 0 2 0 0 0 0 0 0 0 0 0 0 0 11 0 0 7 18 2 171 255 182 289 370 570 1284 1031 1110 885 837 845 1204 1220 1238 1245 1325 1178 1057 1236 1897 1697 1905 1773 1469 983 757 743 872 1181 1305 1143 1236 1588 1770 2322 2281 2184 1834 1747 1745 1754 1725 1627 1309 1377 1890 1775 1843 1760 1841 1817 2210 2205 2390 2468 2552 2518 2547 2566 2748 2568 2645 2857 2952 2790
0 0 1 0 0 0 0 0 0 0 0 0 0 0 0 0 0 2 41 5 74 193 157 142 234 1357 900 855 1044 1074 885 705 1075 1072 1244 1206 1043 1289 1215 1403 1517 2186 2207 2057 1756 1400 1018 774 710 794 1256 1313 1402 1775 1925 2074 2053 2275 1830 1703 1852 2230 2440 2131 1587 1454 1745 1831 1635 1646 1684 1282 1326 1652 1840 2004 2281 2175 2290 2479 2649 2779 2787 2833 2980 3030
0 0 0 0 0 0 0 0 0 0 0 0 0 0 0 0 0 2 0 11 0 38 200 176 256 800 656 919 849 872 787 814 773 745 1154 1049 1394 1345 1283 1476 1699 1880 2276 2518 1951 1705 1860 1690 1289 874 1073 1324 1504 1870 1911 2104 2036 2012 1886 1960 2142 2691 3009 2630 2223 1616 1939 1788 1650 1751 1671 1266 1219 1270 1457 1460 1597 1546 1798 2143 2381 2545 2689 2368 2524 2761
0 0 0 0 0 0 0 0 0 0 0 0 0 0 0 0 0 0 0 68 95 202 179 158 86 1056 682 939 972 939 856 635 599 728 734 1097 1184 974 926 1534 1125 1785 2147 2460 2570 2336 2204 2294 2135 1801 1290 1240 1516 1994 2061 2155 2020 1771 1749 2030 2444 2823 3127 2774 2686 2398 2430 2378 1808 1505 1425 1413 1208 934 1018 1080 1095 1158 1165 1305 1559 2014 2259 2090 2169 2417
0 1 0 0 0 0 0 0 0 0 0 0 0 0 0 0 0 0 0 42 141 209 215 13 41 1000 965 743 964 993 613 455 712 641 698 914 969 1092 1234 870 1139 1725 1942 1984 2028 2053 2147 2029 2121 1863 1639 1400 1362 1685 1917 2001 2004 1926 1990 2347 2747 3051 3130 2762 3006 3056 3174 2847 2009 1543 1367 1298 1118 950 785 695 646 789 783 725 933 1432 1417 1580 1713 2127
0 2 1 0 0 0 0 0 0 0 0 0 0 0 0 0 3 0 0 252 43 166 188 170 51 962 958 917 946 879 568 699 698 635 630 1030 818 902 972 1250 1354 1034 1420 2138 2120 1888 1986 2150 2049 2018 2019 1772 1492 1467 1652 1978 2102 1876 1952 2335 2808 2894 3032 2974 3266 3453 3616 3123 2433 2097 1618 1619 1340 909 754 650 533 537 498 527 575 753 1146 1104 1332 1779
12 20 59 84 133 91 113 295 1 0 0 0 0 0 0 0 0 0 0 5 5 162 391 171 275 1244 939 792 818 904 813 777 821 877 684 536 657 608 657 840 836 920 1108 1256 1663 1994 1894 1882 2097 2035 2142 2352 1973 1511 1520 1800 1917 1629 1860 2657 2711 2810 2787 3111 3516 3652 3434 3166 2917 2851 2226 1980 1814 1407 969 892 680 534 773 463 640 583 667 716 737 1120
19 2 3 67 94 7 0 0 0 0 0 0 0 0 0 0 0 0 0 16 57 86 195 794 1678 1258 1213 902 749 670 776 848 834 855 555 422 372 370 462 715 592 875 886 934 1058 1556 1609 1610 1811 1864 1889 1937 1980 2000 1975 1750 1919 1915 2252 2544 2664 2752 2879 3153 3296 3406 3287 3280 3126 3500 3209 2725 2262 2260 1848 1754 1288 1085 1007 1052 964 854 664 648 814 827
0 0 0 0 0 0 0 0 0 0 0 0 0 0 0 0 0 0 0 24 4 41 26 1448 1758 930 1372 931 678 662 905 858 787 667 478 387 371 376 491 407 464 537 783 880 915 1292 1620 1530 1563 1724 1763 1915 1709 1413 1562 1560 1837 2059 2163 2189 2721 2796 2634 2688 2809 2665 2941 2987 3086 3497 3705 3727 3284 2739 2533 2669 2589 2184 1583 1369 1486 1594 1611 1452 1436 959
82 0 7 0 19 1 0 0 0 12 16 7 58 15 0 0 0 0 0 36 130 340 496 745 1710 1401 1168 979 835 642 724 770 838 565 428 386 384 362 370 396 381 363 380 388 434 648 1366 1535 1056 1140 1492 1434 1125 870 1284 1718 1499 1701 1763 1872 2037 2071 2195 2334 2439 2213 2498 2617 2901 3169 3284 3266 2883 2725 2634 2646 2548 2787 2596 2059 1694 1504 1774 1759 1863 1345
180 0 54 6 7 5 11 3 8 40 44 145 273 408 455 138 102 59 18 256 448 425 173 354 1632 1609 1206 961 843 749 895 850 555 643 414 327 392 353 357 333 328 355 299 268 305 406 600 901 975 841 813 748 657 604 414 654 1026 1257 1553 1678 1685 1920 2145 2170 2267 2556 2370 2868 2984 3046 3030 2960 2709 2660 2668 2726 2726 2780 2617 2499 2318 1894 2078 2160 2129 1969
57 0 2 4 4 0 3 2 1 20 118 329 360 316 254 397 185 210 158 710 231 590 1056 1496 1651 1537 1109 965 925 740 714 565 572 590 353 366 378 403 260 210 289 321 297 302 306 351 412 608 771 717 720 681 614 619 608 605 757 832 862 930 1103 1226 1320 1427 1416 1657 1600 1651 2250 2628 2555 2559 2640 2596 2679 2736 2769 2942 3097 3000 3088 3192 3209 2990 2502 2797
98 0 1 0 0 0 0 6 6 10 125 45 565 362 145 470 978 873 985 1055 1372 950 1048 821 741 1448 1151 869 922 790 715 566 581 338 290 245 423 427 288 294 412 383 392 354 356 361 402 427 380 546 754 714 622 442 436 581 540 648 699 802 892 1008 1067 1081 1099 1074 995 1071 1518 1669 1903 2214 2457 2650 2552 2436 2429 2498 2700 2933 3026 2943 2823 2986 3046 3026
154 51 12 12 9 6 0 7 5 45 12 145 279 465 21 318 862 1072 1135 1125 981 1400 1530 1666 1605 1266 1048 928 862 675 704 464 414 318 418 479 411 357 294 401 398 436 347 292 293 296 357 350 372 281 566 649 591 585 585 693 670 660 596 548 548 680 633 876 947 961 828 554 720 970 1271 1649 2009 2016 1933 2292 2386 2408 2345 2367 2483 2596 2567 2738 2883 2792
151 132 26 33 0 66 20 48 70 73 40 242 452 649 709 558 990 1115 989 925 1028 1126 1372 1429 1240 1093 1016 894 805 747 552 371 355 336 530 447 420 246 306 372 328 307 303 283 322 293 295 325 293 275 471 587 530 472 494 449 318 447 522 498 628 603 670 709 822 671 750 635 517 502 635 627 801 1121 1026 1022 1360 1340 1568 1570 1671 1707 1769 1964 2222 2315
191 129 96 16 85 61 7 11 0 195 222 348 268 323 501 808 854 1034 827 946 1100 1142 1171 1185 962 800 955 841 655 481 391 388 314 307 536 483 317 339 350 333 261 219 200 243 278 234 234 247 119 128 368 281 321 407 308 544 447 443 531 506 549 674 727 772 747 597 645 669 714 685 714 604 577 706 722 581 647 785 857 1025 1153 1392 1363 1502 1839 1842
195 130 63 2 31 28 8 17 226 224 362 220 181 158 273 546 319 680 1100 1088 989 1129 1029 911 902 980 852 728 700 430 387 381 315 275 264 333 344 410 335 250 209 223 231 210 263 244 195 180 21 0 44 118 120 115 225 310 197 197 270 285 321 343 477 592 633 587 524 519 485 482 507 529 326 523 462 464 440 462 577 640 809 948 1208 1148 1340 1071
50 331 206 22 21 342 81 120 137 208 138 25 113 143 241 262 232 356 964 979 952 1006 941 925 1079 825 810 626 488 437 500 499 321 334 299 355 349 365 242 183 147 111 90 125 230 197 156 97 0 0 0 94 116 80 57 132 162 176 199 202 224 194 279 248 265 280 163 175 324 397 360 254 335 333 450 512 535 465 415 460 553 668 756 816 847 911
14 102 301 28 113 6 59 158 159 18 196 14 43 206 290 340 257 689 1117 877 786 960 867 892 1019 861 829 702 448 510 605 528 366 323 283 244 274 274 241 183 42 25 0 12 182 213 175 184 193 0 0 0 0 126 33 0 91 168 113 93 74 56 164 218 158 83 26 34 84 146 259 301 321 408 422 357 283 252 318 411 445 443 642 585 637 784
25 34 15 80 78 12 6 104 144 326 31 3 250 420 528 73 291 341 503 207 630 950 954 1005 877 871 640 574 514 478 508 462 311 215 162 214 179 303 280 157 5 2 0 61 75 126 175 171 144 155 142 65 0 0 102 72 36 96 83 106 0 0 27 83 93 81 71 47 42 20 71 99 144 151 127 57 61 62 84 112 162 138 155 136 156 202
85 39 8 87 3 12 22 179 22 5 10 133 427 426 493 156 70 590 17 8 204 947 1015 1192 830 702 727 612 622 563 749 419 159 102 115 165 163 81 143 47 34 3 10 0 0 58 88 97 115 127 120 120 66 30 16 22 13 23 0 0 0 0 0 0 5 27 62 55 24 34 5 3 3 62 124 95 68 30 19 20 39 41 38 39 27 29
43 47 58 234 300 141 7 1 276 132 69 330 388 519 273 284 873 332 0 70 259 946 1032 1106 829 768 703 637 470 250 211 538 182 170 130 42 34 165 87 25 8 1 0 0 0 0 0 0 0 0 57 52 54 63 72 72 60 0 0 0 0 0 0 0 0 2 8 11 11 2 0 0 0 0 56 61 47 3 2 2 40 78 94 72 0 0
104 344 33 91 97 48 139 78 77 8 317 85 240 334 142 754 536 139 143 647 648 1202 1193 1168 1028 927 798 709 592 271 121 149 106 70 90 52 61 89 31 10 2 0 0 0 0 0 0 0 0 0 0 2 41 53 64 89 102 102 0 0 0 0 0 0 0 0 0 0 0 0 0 0 0 0 0 24 22 0 0 0 29 50 8 0 0 26
262 333 84 71 107 124 20 10 98 142 200 52 284 498 163 156 116 84 407 834 1102 1238 1254 1342 1208 1093 866 775 425 125 327 163 88 91 62 81 74 48 21 12 5 2 0 0 0 0 0 0 0 0 0 0 0 0 3 59 92 115 111 77 0 0 0 0 0 0 0 0 0 0 0 0 0 0 0 0 0 0 0 0 0 0 1 0 0 1
208 453 545 381 322 708 328 190 274 220 54 48 92 155 88 86 76 22 335 692 1169 1271 1283 1381 1247 965 802 595 415 132 276 62 339 119 81 36 66 56 24 3 0 0 0 0 0 0 0 0 0 0 0 0 0 0 0 0 0 36 48 33 0 0 0 0 0 0 0 0 0 0 0 0 0 0 0 0 2 0 0 0 0 0 0 0 0 0
105 387 263 647 340 331 300 382 303 235 264 173 48 56 101 136 132 162 256 716 987 1213 1328 1488 1086 885 718 540 394 190 191 46 59 34 13 27 52 47 37 0 0 0 0 0 0 0 0 0 0 0 0 0 0 0 0 0 0 0 0 0 0 0 0 0 0 0 0 0 0 0 0 0 0 0 0 0 0 0 0 0 0 0 0 0 0 0
184 161 389 251 336 480 230 500 276 333 330 312 217 139 142 163 199 334 669 1087 966 978 1073 1299 1245 940 776 556 541 147 123 187 12 28 24 35 39 19 19 16 0 0 0 0 0 0 0 0 0 0 0 0 0 0 0 0 0 0 0 0 0 0 0 0 0 0 0 0 0 0 0 0 0 0 0 0 0 0 0 1 0 0 0 1 0 0
340 156 374 276 405 473 494 448 352 411 358 299 254 191 219 255 326 473 557 778 1023 1024 1093 1124 1098 838 788 706 472 219 87 154 362 37 99 132 125 90 89 7 24 10 0 0 0 0 0 0 0 0 0 0 0 0 0 0 0 0 0 0 0 0 0 0 0 0 0 0 0 0 0 0 0 0 0 0 0 0 0 1 0 0 2 0 2 2
588 417 202 369 279 211 428 526 510 433 305 325 294 267 268 238 298 530 810 912 868 867 831 732 935 936 672 725 444 231 217 245 79 282 46 3 201 186 174 114 51 28 16 0 0 0 0 0 0 0 0 0 0 0 0 0 0 0 0 0 0 0 0 0 0 0 0 0 0 0 0 0 0 0 0 0 0 0 1 0 0 3 9 0 0 1
327 207 112 185 114 151 408 603 707 538 497 370 337 365 370 245 241 341 462 603 727 789 810 793 704 627 662 466 404 332 250 297 274 329 140 298 301 33 140 165 120 83 10 0 0 0 0 0 0 0 0 0 0 0 0 0 0 0 0 0 0 0 0 0 0 0 0 0 0 0 0 0 0 0 0 0 3 1 0 0 0 0 9 0 0 0
869 1086 742 204 352 283 450 786 616 465 435 416 396 477 594 429 308 257 187 231 302 328 482 709 620 638 639 498 390 352 292 87 316 244 238 38 282 335 262 33 81 70 27 0 0 0 0 0 0 0 0 0 0 0 0 0 0 0 0 0 0 0 0 0 0 0 0 0 0 0 0 0 0 0 0 0 0 3 2 2 0 0 0 0 0 0
Wind_Speed
nan nan nan nan nan nan nan nan nan nan nan 17 12 14 12 15 22 28 25 23 21 20 10 12 11 16 17 17 13 10 8 5 5 6 6 5 6 6 7 8 8 8 9 10 9 8 7 7 7 8 8 7 7 7 6 3 2 2 2 1 2 2 3 4 6 8 8 9 9 9 9 9 9 9 10 12 13 15 16 15 16 19 20 21 22 23
nan nan nan nan nan nan nan nan nan nan nan 15 11 10 13 16 19 21 25 23 22 14 13 15 15 17 18 20 18 16 12 5 4 5 6 5 5 7 6 8 8 8 11 10 9 8 8 8 7 8 8 7 6 6 5 3 2 2 2 1 1 2 3 4 5 6 8 9 10 10 10 8 7 9 11 13 15 17 16 17 19 21 21 22 23 22
nan nan nan nan nan nan nan nan nan nan nan 16 15 12 13 17 18 23 24 22 21 17 18 15 13 17 20 24 20 15 15 12 8 7 6 7 6 7 7 8 9 7 8 9 9 9 9 7 7 8 8 7 7 7 6 5 3 3 2 2 1 2 4 4 5 7 7 8 10 11 10 10 7 10 12 13 16 18 17 19 21 22 22 22 21 20
nan nan nan nan nan nan nan nan nan nan nan nan nan 12 15 19 13 17 20 21 21 19 18 12 14 19 22 27 23 20 17 22 20 9 8 9 8 7 7 8 8 7 8 8 9 9 8 8 8 8 8 9 8 8 7 5 3 3 3 2 1 2 3 4 4 6 7 7 8 11 11 10 10 9 11 13 16 18 18 19 21 22 21 20 19 18
nan nan nan nan nan nan nan nan nan nan nan nan nan nan 13 16 15 19 17 21 22 23 20 15 14 17 20 26 27 21 19 22 23 16 10 9 10 10 10 9 8 7 8 9 9 9 9 8 8 8 9 9 9 7 6 4 4 4 2 2 2 2 3 3 4 4 5 6 8 11 11 10 9 9 11 12 15 17 19 19 20 19 18 18 17 16
nan nan nan nan nan nan nan nan nan nan nan nan nan nan nan 18 21 25 21 19 17 18 16 16 12 13 19 23 23 24 21 19 19 14 10 9 9 9 8 8 9 9 9 8 8 9 9 9 9 8 8 8 9 8 7 6 5 5 4 3 1 1 3 3 4 3 4 6 6 9 11 10 9 9 11 13 14 15 17 18 17 15 15 15 15 14
nan nan nan nan nan nan nan nan nan nan nan nan nan nan nan nan 20 19 16 14 16 16 17 11 10 nan 20 23 24 25 21 19 18 12 10 10 9 8 7 7 9 8 9 8 9 9 9 9 9 8 9 9 9 9 8 7 7 5 5 3 1 1 1 3 4 3 2 4 6 8 11 13 12 11 12 14 15 16 16 16 14 14 13 13 14 12
nan nan nan nan nan nan nan nan nan nan nan nan nan nan nan nan nan nan nan nan 20 28 22 14 15 14 19 26 24 22 23 20 17 14 10 9 9 8 8 8 10 nan 9 9 8 8 9 9 9 8 9 10 10 10 9 8 8 6 5 3 2 2 1 2 3 3 1 3 5 7 10 13 14 13 12 13 15 16 17 15 13 12 11 11 13 12
nan nan nan nan nan nan nan nan nan nan nan nan nan nan nan nan nan nan nan nan 19 16 18 12 12 11 15 32 24 17 22 23 16 12 10 9 10 9 8 9 10 nan nan 8 8 8 8 9 8 9 10 10 10 10 9 9 9 8 6 4 3 4 3 3 3 2 1 2 4 6 9 12 15 16 14 14 15 16 15 14 14 13 11 10 10 10
nan nan nan nan nan nan nan nan nan nan nan nan nan nan nan nan nan nan nan nan 17 nan 14 12 9 7 10 24 27 20 16 14 12 12 10 12 13 11 10 11 11 11 9 nan 8 8 8 9 9 10 11 11 11 10 10 10 10 9 7 5 3 3 4 4 3 1 1 2 4 5 8 9 13 15 17 16 16 16 16 14 14 13 12 10 8 8
nan nan nan nan nan nan nan nan nan nan nan nan nan nan nan nan 24 nan nan nan 18 nan 15 15 10 nan 8 12 19 17 15 15 18 18 20 18 15 13 13 13 13 12 11 10 8 nan 8 9 9 10 11 11 11 12 10 10 11 10 8 6 4 4 5 5 3 1 1 2 4 6 7 8 10 12 15 16 15 15 14 14 12 12 11 10 9 7
nan nan nan nan nan nan nan nan nan nan nan nan nan nan nan 25 nan nan nan 21 nan nan 21 20 11 nan 7 10 11 11 16 11 13 15 18 19 17 14 15 15 14 13 12 11 10 nan nan 8 9 11 10 11 11 12 11 10 11 11 9 8 5 5 5 5 4 2 2 3 4 6 6 7 10 11 13 14 15 15 14 13 12 12 11 9 8 7
nan nan nan nan nan nan nan nan nan nan nan nan nan nan nan nan 20 nan 22 nan nan nan nan 19 18 13 9 10 9 3 5 8 7 10 14 18 16 15 16 16 17 16 14 14 13 nan nan 9 11 10 11 11 11 12 10 10 11 12 10 8 7 6 5 6 4 3 3 3 4 6 6 7 10 11 12 14 15 16 15 14 14 12 11 10 9 7
nan nan nan nan nan nan nan nan nan nan nan nan nan nan nan 20 nan nan nan nan nan 25 17 22 20 14 20 14 12 11 7 7 6 5 9 13 12 13 16 18 19 19 17 15 14 12 nan 11 13 12 12 12 12 11 11 10 11 12 11 9 7 7 6 6 5 4 4 4 4 5 7 8 9 10 11 12 13 14 16 16 15 13 13 12 10 9
nan nan nan nan nan nan nan nan nan nan nan nan nan nan nan nan nan nan nan nan nan 18 23 27 20 19 12 14 10 13 12 11 9 6 8 10 10 11 16 21 20 20 20 18 15 13 11 12 13 13 12 13 13 12 12 12 12 13 12 11 8 8 7 6 5 6 4 5 5 6 7 8 9 9 10 11 13 13 13 14 14 14 14 14 13 12
nan nan nan nan nan nan nan nan nan nan nan nan nan nan nan nan nan nan 22 nan nan 22 22 20 21 25 19 13 13 11 11 10 10 10 10 10 10 9 13 18 21 21 21 19 17 14 12 12 13 13 13 14 14 13 13 13 13 13 13 12 9 8 8 7 6 6 6 6 6 6 6 7 8 10 10 10 11 12 12 12 13 13 13 14 15 13
nan nan nan nan nan nan nan nan nan nan nan nan nan nan nan nan nan nan nan nan 24 24 16 19 18 23 25 17 14 11 9 10 11 11 13 11 11 11 10 15 17 19 21 20 18 17 15 14 14 14 14 15 15 14 14 14 14 12 13 13 11 9 8 8 7 7 7 7 6 5 6 6 7 8 9 8 8 8 10 11 10 11 10 11 11 11
nan nan nan nan nan nan nan nan nan nan nan nan nan nan nan nan nan nan nan nan nan nan 18 15 13 19 17 18 11 12 9 10 10 10 9 10 12 11 11 14 17 18 20 21 20 18 17 17 16 15 16 15 15 14 14 14 15 15 13 12 12 11 9 8 8 8 8 7 6 6 5 5 5 6 7 9 9 9 9 9 9 9 9 9 10 10
nan nan nan nan nan nan nan nan nan nan nan nan nan nan nan nan nan nan nan nan 13 12 16 16 13 15 16 18 13 11 10 11 12 10 9 8 9 10 12 15 18 22 25 25 24 21 20 19 18 17 17 16 16 16 16 16 16 15 14 12 12 11 10 8 8 9 10 9 9 8 7 5 5 6 7 8 9 9 9 8 9 8 10 9 9 10
nan nan nan nan nan nan nan nan nan nan nan nan nan nan nan nan nan nan nan nan nan 15 nan 14 14 15 15 19 13 16 12 13 13 11 8 8 8 10 12 15 21 27 29 29 26 23 22 21 20 19 18 17 17 18 18 18 17 15 14 13 12 12 12 11 9 10 9 10 9 10 10 8 7 7 7 8 9 8 8 8 9 9 9 9 10 10
nan nan nan nan nan nan nan nan nan nan nan nan nan nan nan nan nan nan nan nan 19 17 15 15 15 19 27 24 18 18 15 13 13 12 10 8 8 10 13 15 19 27 33 34 30 27 25 23 23 22 21 20 20 21 20 19 17 16 15 14 13 13 13 12 12 11 11 11 11 11 11 10 9 7 9 9 9 8 9 9 9 10 10 11 10 11
nan nan nan nan nan nan nan nan nan nan nan nan nan nan nan nan nan nan nan nan nan 20 18 14 15 23 22 20 19 19 15 13 13 13 11 9 10 12 13 14 15 23 33 37 35 30 27 26 24 23 24 23 22 22 20 20 19 17 16 16 15 16 15 15 14 14 14 13 13 11 12 11 12 11 10 9 10 9 10 10 10 11 11 11 11 11
nan nan nan nan nan nan nan nan nan nan nan nan nan nan nan nan nan nan nan nan nan nan 19 16 15 19 20 19 17 17 15 14 15 13 13 13 12 13 14 15 14 17 28 38 39 35 33 30 27 25 24 22 21 22 22 22 20 19 17 18 18 18 17 16 16 16 17 15 14 12 13 13 13 13 11 10 11 10 11 11 11 12 11 11 13 11
nan nan nan nan nan nan nan nan nan nan nan nan nan nan nan nan nan nan nan nan nan 21 17 16 nan 17 17 18 16 18 18 18 15 13 14 13 13 17 15 14 15 13 19 32 37 34 34 33 29 28 25 23 23 23 23 23 22 21 20 20 20 18 18 18 19 18 18 17 15 14 13 14 13 13 13 12 13 12 11 13 13 13 12 11 12 13
nan nan nan nan nan nan nan nan nan nan nan nan nan nan nan nan nan nan nan nan 23 19 19 nan nan 19 15 14 20 18 17 17 16 16 13 13 15 16 16 14 13 13 14 21 26 27 30 30 28 27 26 26 25 24 23 24 24 23 23 23 22 22 22 21 22 21 20 19 18 16 16 15 15 15 14 14 14 13 13 14 14 15 13 12 12 13
nan nan nan nan nan nan nan nan nan nan nan nan nan nan nan nan nan nan nan 27 nan 24 22 22 nan 20 19 16 17 15 16 17 18 17 17 17 16 16 16 15 13 11 11 12 15 17 21 25 28 29 27 27 27 27 25 25 25 24 25 25 26 25 24 23 24 23 23 23 21 20 18 17 16 17 16 16 16 15 15 15 15 16 15 13 14 14
nan nan nan nan 31 nan 34 38 nan nan nan nan nan nan nan nan nan nan nan nan nan 25 22 19 21 19 14 13 12 13 14 17 17 17 19 20 19 18 17 15 13 13 11 10 10 14 16 18 22 28 30 30 30 29 28 27 26 25 26 27 27 26 25 26 26 25 25 25 23 22 20 19 19 19 19 19 18 19 18 17 16 15 15 15 14 14
nan nan nan nan nan nan nan nan nan nan nan nan nan nan nan nan nan nan nan nan nan nan 22 24 22 17 15 14 12 11 15 17 17 20 20 20 19 16 15 15 14 13 11 12 11 10 13 15 18 24 28 31 32 30 31 31 30 28 28 28 29 28 28 28 27 27 27 27 25 24 22 21 21 21 21 21 21 20 20 19 19 18 17 17 15 14
nan nan nan nan nan nan nan nan nan nan nan nan nan nan nan nan nan nan nan nan nan nan nan 25 19 19 24 20 17 14 16 15 17 19 20 22 21 19 17 15 15 14 11 10 9 8 10 14 17 20 24 29 31 32 34 36 34 31 32 32 31 30 29 29 27 27 27 27 26 25 25 25 24 23 23 23 24 22 21 20 20 20 20 19 18 17
nan nan nan nan nan nan nan nan nan nan nan nan nan nan nan nan nan nan nan nan 25 26 28 23 19 28 30 29 24 21 18 18 21 21 20 20 21 22 21 20 19 18 17 15 11 10 11 15 20 20 24 29 35 41 45 44 40 37 35 34 35 33 32 31 29 27 28 28 27 27 27 26 26 25 24 24 23 22 22 21 20 20 20 20 20 19
27 nan nan nan nan nan nan nan nan nan nan 31 35 36 35 30 32 nan nan 33 31 25 21 19 23 31 34 34 33 28 25 26 24 22 24 24 21 22 23 22 21 20 20 21 20 17 21 22 23 23 27 30 33 38 44 50 53 50 45 43 41 38 35 30 30 30 29 30 30 30 30 29 28 27 25 25 24 23 23 21 21 22 22 22 22 21
nan nan nan nan nan nan nan nan nan nan 29 35 39 40 40 35 28 31 30 36 23 22 26 30 28 29 30 32 34 33 33 30 28 28 27 25 25 25 26 26 25 24 25 26 25 25 25 26 24 27 29 31 32 35 42 49 55 52 48 48 47 45 45 42 38 37 37 35 34 32 30 29 29 27 27 26 25 25 24 23 23 24 24 23 23 23
nan nan nan nan nan nan nan nan nan nan 31 nan 39 40 37 35 37 35 37 36 37 32 26 27 34 36 33 32 33 32 31 32 33 33 32 31 30 31 31 31 30 31 30 30 31 31 29 29 28 28 30 31 31 31 34 43 57 57 48 45 44 43 43 41 38 38 38 37 36 36 33 29 28 28 27 27 27 26 25 24 24 24 24 23 23 24
24 nan nan nan nan nan nan nan nan nan nan 33 40 37 nan 35 36 33 36 38 38 36 37 38 38 37 36 35 33 31 32 34 35 36 36 35 35 37 37 36 35 35 36 36 36 35 33 31 30 30 31 31 31 30 27 34 48 53 46 42 44 48 47 45 42 41 42 41 39 36 34 31 30 30 31 32 31 29 27 26 27 26 25 25 26 26
23 24 nan nan nan nan nan nan nan nan nan 42 35 36 33 30 31 35 35 36 34 33 35 37 37 36 35 35 34 34 37 37 37 37 38 38 38 39 39 39 38 38 39 39 40 39 39 37 35 33 33 29 26 26 26 26 33 45 50 48 48 51 53 52 49 47 48 48 45 43 40 37 38 39 40 39 37 37 37 37 34 31 30 29 29 28
24 26 nan nan nan nan nan nan nan 36 40 35 33 34 34 30 33 27 33 34 33 32 32 33 34 35 35 35 34 35 36 38 38 37 36 37 38 39 39 39 40 42 42 41 43 42 42 42 40 38 38 36 34 29 26 22 21 32 41 46 51 52 52 53 53 52 51 51 48 48 46 42 41 43 39 37 36 37 40 39 37 37 35 33 33 32
27 29 nan nan nan nan nan nan 32 30 28 29 27 33 34 34 35 33 28 32 32 29 30 31 32 34 34 32 32 33 35 36 35 34 35 38 38 39 41 42 42 44 44 43 43 43 42 42 nan nan nan 38 39 38 33 27 25 25 28 35 43 51 53 56 56 53 52 50 50 51 48 45 44 44 45 42 39 38 37 36 36 39 38 37 38 36
nan 28 32 nan nan 29 nan 20 27 24 24 nan 34 32 30 32 32 31 29 34 31 31 32 31 31 32 32 31 31 32 31 32 31 30 31 35 37 40 41 40 40 42 nan 42 40 40 40 nan nan nan nan nan 40 nan nan 38 36 32 27 23 24 32 39 46 52 55 55 52 50 49 46 45 45 47 47 45 43 40 36 36 41 46 46 44 41 40
nan 22 27 nan 31 nan nan 19 23 nan 28 nan nan 34 34 32 28 32 28 35 34 31 32 30 31 30 29 30 30 28 25 26 29 29 30 34 36 38 38 37 nan nan nan nan 38 36 36 36 36 nan nan nan nan 35 nan nan nan 36 34 nan nan nan 22 24 29 nan nan nan nan 49 46 44 48 55 56 53 51 49 47 45 45 47 47 45 43 43
nan nan nan nan nan nan nan 20 23 31 nan nan 31 32 34 nan 27 26 30 35 37 29 31 28 29 27 27 29 28 25 25 29 30 30 33 35 36 35 34 35 nan nan nan nan nan 37 35 35 36 36 36 nan nan nan 32 nan nan nan nan 36 nan nan nan nan nan nan nan nan nan nan nan nan 41 46 52 nan nan nan nan 48 47 48 48 49 47 44
nan nan nan nan nan nan nan 25 nan nan nan 32 30 32 33 34 nan 32 nan nan 32 25 27 26 26 26 27 28 26 30 37 37 36 36 35 37 37 nan 35 nan nan nan nan nan nan nan nan nan 35 36 35 32 nan nan nan nan nan nan nan nan nan nan nan nan nan nan nan nan nan nan nan nan nan nan 31 nan nan nan nan nan nan nan nan nan nan nan
nan nan nan 13 12 10 nan nan 24 29 nan 29 29 29 30 27 30 38 nan nan 25 23 26 25 25 26 28 29 33 34 34 37 39 35 35 nan nan 36 nan nan nan nan nan nan nan nan nan nan nan nan nan nan nan nan nan nan nan nan nan nan nan nan nan nan nan nan nan nan nan nan nan nan nan nan nan nan nan nan nan nan nan nan nan nan nan nan
19 14 nan nan nan nan 14 nan nan nan 28 nan 34 24 34 27 30 30 29 30 29 25 27 27 25 28 30 33 36 38 36 38 37 nan nan nan nan nan nan nan nan nan nan nan nan nan nan nan nan nan nan nan nan nan nan nan 33 32 nan nan nan nan nan nan nan nan nan nan nan nan nan nan nan nan nan nan nan nan nan nan nan nan nan nan nan nan
19 14 nan nan 18 14 nan nan nan 23 23 nan 30 32 33 30 24 nan 23 30 31 31 29 30 27 28 33 35 40 41 42 41 nan nan nan nan nan nan nan nan nan nan nan nan nan nan nan nan nan nan nan nan nan nan nan nan nan 31 32 nan nan nan nan nan nan nan nan nan nan nan nan nan nan nan nan nan nan nan nan nan nan nan nan nan nan nan
20 18 19 19 21 21 22 22 21 23 nan nan nan 28 nan nan nan nan 21 24 30 32 32 29 30 29 32 34 37 37 36 nan 39 37 nan nan nan nan nan nan nan nan nan nan nan nan nan nan nan nan nan nan nan nan nan nan nan nan nan nan nan nan nan nan nan nan nan nan nan nan nan nan nan nan nan nan nan nan nan nan nan nan nan nan nan nan
12 15 15 15 20 21 26 24 20 22 26 28 nan nan 30 30 28 24 22 23 30 35 32 32 31 31 28 34 40 38 36 nan nan nan nan nan nan nan nan nan nan nan nan nan nan nan nan nan nan nan nan nan nan nan nan nan nan nan nan nan nan nan nan nan nan nan nan nan nan nan nan nan nan nan nan nan nan nan nan nan nan nan nan nan nan nan
13 11 11 14 14 11 18 19 23 24 25 29 30 32 34 34 31 29 28 29 30 32 33 34 33 34 35 38 36 38 39 40 nan nan nan nan nan nan nan nan nan nan nan nan nan nan nan nan nan nan nan nan nan nan nan nan nan nan nan nan nan nan nan nan nan nan nan nan nan nan nan nan nan nan nan nan nan nan nan nan nan nan nan nan nan nan
10 11 10 15 13 16 18 17 20 23 25 28 29 31 34 36 36 34 32 31 33 34 34 34 33 34 37 41 45 45 nan 33 34 nan nan 36 36 nan nan nan nan nan nan nan nan nan nan nan nan nan nan nan nan nan nan nan nan nan nan nan nan nan nan nan nan nan nan nan nan nan nan nan nan nan nan nan nan nan nan nan nan nan nan nan nan nan
12 8 11 10 13 17 18 15 15 18 24 27 29 30 30 32 33 33 33 33 33 34 34 32 29 31 34 39 42 38 35 30 nan 33 nan nan 35 34 35 35 nan nan nan nan nan nan nan nan nan nan nan nan nan nan nan nan nan nan nan nan nan nan nan nan nan nan nan nan nan nan nan nan nan nan nan nan nan nan nan nan nan nan nan nan nan nan
4 9 12 8 11 12 15 17 15 11 18 23 26 27 28 29 31 31 31 32 33 34 33 33 34 31 32 37 42 43 41 39 39 35 31 33 35 nan 37 38 38 nan nan nan nan nan nan nan nan nan nan nan nan nan nan nan nan nan nan nan nan nan nan nan nan nan nan nan nan nan nan nan nan nan nan nan nan nan nan nan nan nan nan nan nan nan
11 16 12 14 17 17 17 18 19 22 24 23 24 25 27 27 29 31 32 31 31 31 32 32 32 34 36 37 41 47 43 nan 36 33 32 nan 31 34 38 nan nan nan nan nan nan nan nan nan nan nan nan nan nan nan nan nan nan nan nan nan nan nan nan nan nan nan nan nan nan nan nan nan nan nan nan nan nan nan nan nan nan nan nan nan nan nan
Wind_Direction
nan nan nan nan nan nan nan nan nan nan nan 191 197 199 219 231 233 230 233 238 238 230 224 254 235 251 231 219 217 206 211 204 243 265 245 241 230 199 186 209 223 233 225 228 227 224 210 217 223 220 216 209 218 217 232 233 224 188 166 189 358 359 22 59 77 90 100 118 130 121 104 99 95 100 103 106 115 122 130 128 126 122 122 122 122 123
nan nan nan nan nan nan nan nan nan nan nan 190 198 204 219 238 235 239 236 239 232 219 246 243 242 251 233 213 210 194 188 206 240 265 260 251 231 212 205 214 220 225 222 232 228 225 216 209 220 220 217 214 221 219 224 222 218 210 202 248 339 346 11 57 80 91 99 115 132 128 111 99 95 96 99 110 117 125 135 131 129 124 128 125 125 125
nan nan nan nan nan nan nan nan nan nan nan 198 192 208 215 233 246 238 238 235 230 208 230 246 250 253 232 213 200 195 188 194 201 221 241 235 231 222 216 213 219 226 231 233 228 228 220 219 219 213 212 211 213 217 218 211 218 223 215 235 306 4 3 40 63 85 94 112 135 141 133 117 105 99 107 117 124 129 133 131 130 131 130 128 129 129
nan nan nan nan nan nan nan nan nan nan nan nan nan 200 208 230 234 229 234 229 221 202 219 245 249 243 225 208 196 190 187 195 185 200 210 216 218 225 233 221 218 232 228 235 227 228 227 220 212 208 208 207 207 214 214 208 213 206 204 252 316 346 15 14 48 84 100 116 140 153 145 136 118 111 123 130 129 129 133 133 133 133 132 130 131 129
nan nan nan nan nan nan nan nan nan nan nan nan nan nan 207 228 197 224 232 223 221 211 212 239 249 228 218 209 195 191 191 190 196 199 193 204 206 212 226 224 220 226 228 232 229 223 226 224 215 208 207 207 200 206 218 211 216 189 243 250 320 346 4 10 10 61 99 120 132 149 154 144 142 124 120 126 130 133 135 135 133 134 132 132 133 132
nan nan nan nan nan nan nan nan nan nan nan nan nan nan nan 205 216 227 239 226 212 219 228 257 246 225 222 206 202 209 206 199 201 199 189 209 210 213 232 237 230 220 222 227 233 228 228 224 220 209 209 202 197 194 208 215 225 202 224 246 301 324 351 353 343 17 81 104 122 143 149 148 139 131 127 129 135 135 137 136 138 140 133 134 135 136
nan nan nan nan nan nan nan nan nan nan nan nan nan nan nan nan 219 230 228 206 212 206 245 242 230 nan 224 205 199 209 203 204 202 192 201 216 211 210 209 230 236 230 235 221 225 223 231 230 223 215 204 199 192 194 204 218 233 219 223 226 221 268 321 322 329 352 74 107 120 128 145 153 150 145 145 144 144 147 146 150 148 147 142 140 139 141
nan nan nan nan nan nan nan nan nan nan nan nan nan nan nan nan nan nan nan nan 210 220 240 234 220 241 224 197 193 208 205 207 201 192 202 218 211 207 201 211 230 nan 238 230 234 228 229 227 226 215 211 195 191 194 206 217 235 242 231 224 191 186 241 283 304 335 71 120 121 126 143 157 156 158 161 158 160 161 161 161 156 156 153 151 146 150
nan nan nan nan nan nan nan nan nan nan nan nan nan nan nan nan nan nan nan nan 215 216 230 226 234 242 212 194 195 203 200 202 203 205 217 224 214 208 198 205 221 nan nan 241 229 234 228 231 227 218 211 199 189 198 205 213 234 241 237 224 197 185 193 246 292 305 312 146 135 131 143 160 166 172 172 169 169 172 169 170 169 166 165 163 157 154
nan nan nan nan nan nan nan nan nan nan nan nan nan nan nan nan nan nan nan nan 212 nan 225 243 242 240 219 196 191 196 189 196 202 218 229 230 216 207 199 205 216 215 216 nan 228 227 218 224 223 219 213 202 189 195 206 215 230 239 234 230 212 184 187 224 269 280 281 169 156 146 150 159 171 175 179 178 181 179 179 180 181 179 172 171 170 167
nan nan nan nan nan nan nan nan nan nan nan nan nan nan nan nan 216 nan nan nan 207 nan 220 263 270 nan 225 205 197 199 183 203 218 220 227 231 224 205 197 205 214 213 210 206 219 nan 217 217 221 221 217 206 192 195 206 214 229 235 236 237 221 196 194 218 231 241 256 192 167 166 160 156 170 179 185 188 191 189 189 187 192 192 188 181 185 183
nan nan nan nan nan nan nan nan nan nan nan nan nan nan nan 215 nan nan nan 212 nan nan 235 255 263 nan 237 238 198 185 206 218 229 238 246 246 238 212 202 206 213 217 212 209 209 nan nan 215 222 223 217 212 203 200 200 210 226 232 235 235 231 212 204 214 214 187 202 202 180 171 172 164 165 174 182 190 198 201 200 201 203 204 204 201 205 198
nan nan nan nan nan nan nan nan nan nan nan nan nan nan nan nan 215 nan 226 nan nan nan nan 245 255 250 249 236 257 295 203 220 233 235 248 251 243 218 199 204 213 219 217 211 209 nan nan 211 219 218 220 217 212 206 200 203 220 233 237 240 238 228 215 214 219 195 178 191 188 173 178 178 173 170 176 186 195 202 205 207 215 217 215 217 216 222
nan nan nan nan nan nan nan nan nan nan nan nan nan nan nan 206 nan nan nan nan nan 250 254 242 248 226 248 263 249 282 289 238 239 252 258 262 245 223 205 206 210 217 217 215 212 202 nan 207 215 212 216 219 213 214 211 203 211 226 234 241 236 237 228 218 217 208 180 174 179 180 180 184 186 175 172 178 187 199 205 208 214 221 225 226 225 233
nan nan nan nan nan nan nan nan nan nan nan nan nan nan nan nan nan nan nan nan nan 232 245 248 243 237 258 255 257 254 260 267 253 263 269 276 268 235 207 204 209 215 217 213 209 207 197 204 215 211 212 216 212 213 215 211 211 220 230 239 237 236 241 233 221 212 192 181 175 184 182 188 188 184 179 178 181 191 200 203 213 214 222 230 233 234
nan nan nan nan nan nan nan nan nan nan nan nan nan nan nan nan nan nan 211 nan nan 243 246 250 231 236 241 277 264 258 265 269 272 271 270 279 276 266 236 216 210 210 215 213 208 205 199 200 212 207 209 212 211 216 216 222 220 217 224 238 239 237 243 245 238 220 208 193 189 185 186 193 192 188 184 189 186 188 193 203 203 213 213 220 231 234
nan nan nan nan nan nan nan nan nan nan nan nan nan nan nan nan nan nan nan nan 209 229 232 243 244 248 252 262 265 267 263 264 277 280 276 284 293 294 272 251 234 220 217 216 210 204 199 196 205 207 205 208 211 217 218 224 226 222 225 232 239 238 238 245 247 237 224 214 202 199 193 195 202 193 183 193 203 195 202 203 205 210 213 223 221 234
nan nan nan nan nan nan nan nan nan nan nan nan nan nan nan nan nan nan nan nan nan nan 237 245 242 248 246 238 250 261 256 264 271 281 275 280 296 313 293 271 259 246 231 222 216 210 201 199 201 202 204 207 211 217 223 226 224 222 221 228 236 237 238 245 254 254 246 237 221 215 211 204 199 200 189 192 212 207 211 213 205 209 220 216 228 225
nan nan nan nan nan nan nan nan nan nan nan nan nan nan nan nan nan nan nan nan 217 222 229 236 237 231 235 245 258 258 261 268 273 277 279 284 303 316 309 284 273 266 250 235 224 214 208 202 201 202 202 208 212 215 220 225 223 224 221 222 227 234 236 242 246 255 250 250 236 230 228 229 215 208 207 207 212 214 215 218 227 214 220 224 231 235
nan nan nan nan nan nan nan nan nan nan nan nan nan nan nan nan nan nan nan nan nan 213 nan 237 241 234 231 242 266 265 258 263 272 273 281 284 310 312 313 298 271 260 248 243 230 217 212 206 203 207 205 208 215 218 220 224 220 224 225 228 225 227 226 226 231 244 247 250 242 240 240 235 227 220 220 226 225 221 225 219 232 224 233 221 236 241
nan nan nan nan nan nan nan nan nan nan nan nan nan nan nan nan nan nan nan nan 211 208 216 215 230 234 227 221 246 252 252 261 264 265 259 266 289 308 322 311 276 256 247 241 232 216 211 210 208 209 209 208 214 221 222 227 225 223 223 232 233 232 229 226 223 230 234 235 238 238 240 240 238 236 231 232 236 223 228 230 228 236 229 237 229 239
nan nan nan nan nan nan nan nan nan nan nan nan nan nan nan nan nan nan nan nan nan 208 213 212 215 226 219 210 226 241 238 251 263 257 256 257 280 295 303 311 290 254 244 242 233 216 209 211 209 210 213 212 216 221 224 226 228 228 225 228 234 235 230 227 223 223 229 228 232 235 237 237 238 234 229 230 238 227 234 232 236 237 237 243 242 238
nan nan nan nan nan nan nan nan nan nan nan nan nan nan nan nan nan nan nan nan nan nan 208 204 204 222 211 211 227 241 242 243 243 252 247 246 266 283 293 300 291 262 246 241 232 217 210 211 212 213 217 218 219 221 225 226 227 229 230 230 232 236 237 234 230 227 228 229 232 236 236 236 239 238 235 233 232 233 235 238 237 241 243 241 252 250
nan nan nan nan nan nan nan nan nan nan nan nan nan nan nan nan nan nan nan nan nan 224 217 221 nan 230 226 212 226 236 241 242 244 253 256 248 255 270 275 299 304 283 259 244 231 218 212 212 213 216 217 220 221 223 226 226 225 226 228 231 233 237 239 237 236 234 234 233 234 238 240 241 237 242 240 235 232 235 232 235 240 244 241 243 247 259
nan nan nan nan nan nan nan nan nan nan nan nan nan nan nan nan nan nan nan nan 219 218 212 nan nan 220 227 227 237 244 247 248 248 250 257 260 256 260 285 303 313 307 284 256 239 226 219 217 219 221 219 220 221 222 226 228 228 227 228 232 232 232 234 234 237 238 239 238 237 235 239 242 242 241 239 236 234 236 234 233 236 242 241 244 245 253
nan nan nan nan nan nan nan nan nan nan nan nan nan nan nan nan nan nan nan 222 nan 223 216 213 nan 232 235 234 246 249 248 246 243 244 245 250 258 260 265 275 287 297 295 277 257 244 236 228 225 225 225 226 226 224 226 230 232 231 229 232 232 233 235 237 237 238 239 239 239 236 237 239 240 242 243 240 236 234 235 235 235 239 242 241 244 247
nan nan nan nan 200 nan 210 214 nan nan nan nan nan nan nan nan nan nan nan nan nan 218 223 225 211 233 232 238 238 247 248 251 249 247 244 246 251 256 256 262 268 268 258 255 262 261 255 249 244 233 226 226 231 231 228 231 234 234 235 236 236 235 236 238 238 239 240 240 240 240 239 238 240 241 243 244 238 238 237 235 237 237 241 244 243 248
nan nan nan nan nan nan nan nan nan nan nan nan nan nan nan nan nan nan nan nan nan nan 213 231 234 229 230 239 236 239 244 246 243 243 242 241 243 250 257 255 262 268 264 253 246 256 268 270 265 251 239 234 235 236 236 235 233 231 234 236 236 236 236 236 239 240 241 241 240 239 241 238 238 240 240 241 243 239 240 240 239 240 238 240 245 243
nan nan nan nan nan nan nan nan nan nan nan nan nan nan nan nan nan nan nan nan nan nan nan 234 235 222 234 239 238 236 239 245 246 245 242 243 241 242 244 247 248 250 256 260 263 267 275 274 277 278 263 250 247 246 245 240 235 234 232 233 233 234 234 235 238 242 243 244 243 240 240 241 240 239 241 240 240 239 240 243 243 243 241 243 240 243
nan nan nan nan nan nan nan nan nan nan nan nan nan nan nan nan nan nan nan nan 222 218 216 218 229 227 238 241 242 242 241 244 244 243 243 246 243 240 240 238 239 239 238 238 244 255 260 270 267 269 273 265 257 245 239 241 241 234 231 233 233 230 232 233 236 239 243 246 245 244 242 242 241 243 245 246 248 246 242 240 244 247 249 247 246 243
197 nan nan nan nan nan nan nan nan nan nan 229 226 222 221 221 220 nan nan 230 230 224 226 244 243 238 237 243 244 245 244 243 245 245 245 241 239 240 239 239 240 241 241 239 237 247 258 257 267 261 263 262 260 255 245 238 235 233 233 232 232 230 230 232 234 238 242 245 246 246 245 243 243 242 244 246 247 249 248 245 242 244 247 248 248 247
nan nan nan nan nan nan nan nan nan nan 231 231 225 217 214 218 230 228 228 233 230 243 253 252 246 243 245 250 249 247 246 247 248 247 245 245 247 244 242 241 244 246 246 244 244 245 251 254 253 262 259 257 256 253 247 240 239 236 231 231 231 230 226 229 234 234 238 239 243 245 246 245 246 244 245 246 245 246 246 245 245 244 247 248 250 251
nan nan nan nan nan nan nan nan nan nan 224 nan 216 209 209 218 221 226 229 232 228 235 245 244 236 243 253 255 256 252 250 249 248 246 245 247 248 247 245 246 247 250 250 249 248 246 249 253 254 255 255 254 254 254 248 241 239 236 232 228 232 235 234 233 237 241 241 242 244 243 240 241 246 248 248 248 246 244 245 244 245 246 246 248 247 250
210 nan nan nan nan nan nan nan nan nan nan 218 210 207 nan 215 220 226 231 230 229 225 233 230 245 253 258 259 258 258 254 249 245 243 244 246 248 249 248 248 249 250 253 254 254 252 251 250 250 251 251 252 249 249 253 248 242 234 226 222 227 234 233 233 231 236 243 241 238 240 241 241 241 244 246 246 245 244 247 247 246 244 245 246 247 246
210 211 nan nan nan nan nan nan nan nan nan 217 210 210 211 216 219 230 233 232 233 236 243 248 252 258 261 263 263 258 254 251 247 248 247 249 248 250 250 251 251 252 255 257 258 259 259 257 258 257 255 253 253 248 249 247 241 237 229 221 223 230 231 229 227 228 233 236 230 231 236 237 241 243 240 240 242 245 244 245 247 248 246 246 247 248
209 221 nan nan nan nan nan nan nan 219 219 218 215 212 211 216 222 230 236 232 232 238 245 251 256 260 264 266 267 264 262 257 252 249 250 250 251 251 251 252 252 252 254 257 260 261 261 258 257 259 260 262 264 255 244 245 245 243 237 234 234 232 228 226 226 223 225 231 230 226 223 230 239 240 239 242 242 243 245 245 247 247 245 244 243 243
207 217 nan nan nan nan nan nan 211 214 220 219 217 212 210 217 217 218 228 238 233 236 245 252 261 265 267 270 271 269 268 264 258 254 252 253 253 251 252 253 254 255 255 256 257 259 261 260 nan nan nan 260 259 257 254 254 256 250 244 240 238 235 231 230 230 228 227 229 230 229 225 223 229 237 239 237 237 240 241 240 243 248 244 244 242 242
nan 207 219 nan nan 215 nan 208 222 211 214 nan 214 214 215 219 218 222 225 242 234 238 248 259 268 272 271 270 270 272 274 268 263 259 259 259 257 254 252 253 255 257 nan 258 258 259 261 nan nan nan nan nan 262 nan nan 263 261 256 251 244 232 229 231 233 232 230 229 229 230 229 228 228 230 234 237 238 238 239 239 241 241 240 240 242 243 245
nan 211 214 nan 223 nan nan 203 218 nan 217 nan nan 210 213 219 220 229 231 239 236 239 252 261 269 271 271 273 274 276 272 264 263 262 262 264 264 261 257 256 nan nan nan nan 260 259 258 258 258 nan nan nan nan 262 nan nan nan 258 254 nan nan nan 233 234 235 nan nan nan nan 232 232 231 232 236 237 236 234 234 234 234 239 241 242 245 243 243
nan nan nan nan nan nan nan 214 227 222 nan nan 206 204 207 nan 221 228 234 237 235 236 248 259 267 268 270 272 271 267 259 256 259 262 266 266 266 266 265 264 nan nan nan nan nan 258 257 256 256 256 257 nan nan nan 259 nan nan nan nan 254 nan nan nan nan nan nan nan nan nan nan nan nan 231 233 235 nan nan nan nan 236 238 238 240 243 245 246
nan nan nan nan nan nan nan 221 nan nan nan 213 202 199 206 214 nan 225 nan nan 222 224 242 255 260 265 268 268 260 249 238 241 257 268 272 273 273 nan 266 nan nan nan nan nan nan nan nan nan 254 254 256 256 nan nan nan nan nan nan nan nan nan nan nan nan nan nan nan nan nan nan nan nan nan nan 226 nan nan nan nan nan nan nan nan nan nan nan
nan nan nan 207 210 224 nan nan 225 224 nan 205 200 203 214 215 221 227 nan nan 213 219 232 247 255 260 261 260 251 249 247 256 265 269 272 nan nan 271 nan nan nan nan nan nan nan nan nan nan nan nan nan nan nan nan nan nan nan nan nan nan nan nan nan nan nan nan nan nan nan nan nan nan nan nan nan nan nan nan nan nan nan nan nan nan nan nan
206 196 nan nan nan nan 212 nan nan nan 222 nan 197 212 218 212 223 218 214 218 220 227 234 245 248 257 257 254 248 247 254 263 265 nan nan nan nan nan nan nan nan nan nan nan nan nan nan nan nan nan nan nan nan nan nan nan 258 257 nan nan nan nan nan nan nan nan nan nan nan nan nan nan nan nan nan nan nan nan nan nan nan nan nan nan nan nan
197 194 nan nan 207 199 nan nan nan 217 213 nan 213 222 222 223 219 nan 219 233 229 227 232 240 245 251 254 251 241 244 248 256 nan nan nan nan nan nan nan nan nan nan nan nan nan nan nan nan nan nan nan nan nan nan nan nan nan 259 260 nan nan nan nan nan nan nan nan nan nan nan nan nan nan nan nan nan nan nan nan nan nan nan nan nan nan nan
202 204 199 208 212 210 220 229 226 217 nan nan nan 230 nan nan nan nan 229 225 236 231 229 234 245 249 252 251 250 251 252 nan 257 253 nan nan nan nan nan nan nan nan nan nan nan nan nan nan nan nan nan nan nan nan nan nan nan nan nan nan nan nan nan nan nan nan nan nan nan nan nan nan nan nan nan nan nan nan nan nan nan nan nan nan nan nan
200 193 188 203 228 235 231 228 230 223 220 226 nan nan 229 231 230 229 229 239 237 232 230 231 238 246 253 253 248 246 253 nan nan nan nan nan nan nan nan nan nan nan nan nan nan nan nan nan nan nan nan nan nan nan nan nan nan nan nan nan nan nan nan nan nan nan nan nan nan nan nan nan nan nan nan nan nan nan nan nan nan nan nan nan nan nan
202 188 184 223 230 220 231 230 230 226 222 223 228 230 232 231 229 226 230 233 239 238 235 235 240 238 244 251 252 253 259 262 nan nan nan nan nan nan nan nan nan nan nan nan nan nan nan nan nan nan nan nan nan nan nan nan nan nan nan nan nan nan nan nan nan nan nan nan nan nan nan nan nan nan nan nan nan nan nan nan nan nan nan nan nan nan
226 189 197 219 212 220 242 240 236 234 233 227 223 226 227 228 228 227 227 229 233 237 240 245 248 248 246 249 249 248 nan 250 257 nan nan 255 254 nan nan nan nan nan nan nan nan nan nan nan nan nan nan nan nan nan nan nan nan nan nan nan nan nan nan nan nan nan nan nan nan nan nan nan nan nan nan nan nan nan nan nan nan nan nan nan nan nan
206 180 218 210 227 238 240 237 236 241 239 233 231 229 228 229 232 231 231 234 237 242 244 246 247 252 252 254 253 250 253 256 nan 260 nan nan 254 253 251 251 nan nan nan nan nan nan nan nan nan nan nan nan nan nan nan nan nan nan nan nan nan nan nan nan nan nan nan nan nan nan nan nan nan nan nan nan nan nan nan nan nan nan nan nan nan nan
199 226 227 220 247 243 230 231 221 228 239 231 228 228 228 230 234 237 236 235 234 238 240 245 245 244 247 257 258 255 255 253 251 247 253 256 258 nan 257 257 259 nan nan nan nan nan nan nan nan nan nan nan nan nan nan nan nan nan nan nan nan nan nan nan nan nan nan nan nan nan nan nan nan nan nan nan nan nan nan nan nan nan nan nan nan nan
209 216 200 212 213 241 242 237 232 239 241 232 230 229 230 230 233 235 234 234 235 235 235 238 244 244 244 249 255 261 261 nan 261 260 260 nan 258 260 263 nan nan nan nan nan nan nan nan nan nan nan nan nan nan nan nan nan nan nan nan nan nan nan nan nan nan nan nan nan nan nan nan nan nan nan nan nan nan nan nan nan nan nan nan nan nan nan